START_TIME,STEP,MOV.,M29,t_acc.,H22,t_acc.,H26,t_acc.,H30,t_acc.
1979-08-01 12:00:30.790 ,0,0,0.,24.0,0.,24.0,0.,24.0,0.,24.0
1979-08-01 12:01:42.790 ,0,0,0.,24.0,0.,24.0,0.,24.0,0.,24.0
1979-08-01 12:02:06.790 ,0,0,0.,24.0,0.,24.0,0.,24.0,0.,24.0
1979-08-01 12:02:30.790 ,3,1,0.,24.0,0.,24.0,0.,24.0,0.,24.0
1979-08-01 12:02:54.790 ,3,0,0.,24.0,0.,24.0,0.,24.0,0.,24.0
1979-08-01 12:03:18.790 ,4,1,0.,24.0,0.,24.0,0.,24.0,0.,24.0
1979-08-01 12:03:42.790 ,4,0,0.,24.0,0.,24.0,0.,24.0,0.,24.0
1979-08-01 12:04:06.790 ,5,1,0.,24.0,0.,24.0,0.,24.0,0.,24.0
1979-08-01 12:04:30.790 ,5,0,,0,,0,,0,,0
1979-08-01 12:04:54.790 ,6,1,0.,24.0,0.,24.0,0.,24.0,0.,24.0
1979-08-01 12:05:18.790 ,6,0,0.,24.0,0.,24.0,0.,24.0,0.,24.0
1979-08-01 12:05:42.790 ,7,1,0.,24.0,0.,24.0,0.,24.0,0.,24.0
1979-08-01 12:06:06.790 ,7,0,0.,24.0,0.,24.0,0.,24.0,0.,24.0
1979-08-01 12:07:18.790 ,0,0,0.,24.0,0.,24.0,0.,24.0,0.,24.0
1979-08-01 12:07:42.790 ,0,0,0.,24.0,0.,24.0,0.,24.0,0.,24.0
1979-08-01 12:08:06.790 ,5,1,0.,24.0,0.,24.0,0.,24.0,0.,24.0
1979-08-01 12:08:30.790 ,5,0,0.,24.0,0.,24.0,0.,24.0,0.,24.0
1979-08-01 12:08:54.790 ,4,1,0.,24.0,0.,24.0,0.,24.0,0.,24.0
1979-08-01 12:09:18.790 ,4,0,0.,24.0,0.,24.0,0.,24.0,0.,24.0
1979-08-01 12:09:42.790 ,3,1,0.,24.0,0.,24.0,0.,24.0,0.,24.0
1979-08-01 12:10:06.790 ,3,0,0.,24.0,0.,24.0,0.,24.0,0.,24.0
1979-08-01 12:10:30.790 ,2,1,0.,24.0,0.,24.0,0.,24.0,0.,24.0
1979-08-01 12:10:54.790 ,2,0,0.,24.0,0.,24.0,0.,24.0,0.,24.0
1979-08-01 12:11:18.790 ,0,0,0.,24.0,0.,24.0,0.,24.0,0.,24.0
1979-08-01 12:11:42.790 ,0,0,0.,24.0,0.,24.0,0.,24.0,0.,24.0
1979-08-01 12:12:06.790 ,0,1,0.,24.0,0.,24.0,0.,24.0,0.,24.0
1979-08-01 12:12:30.790 ,0,0,0.,24.0,0.,24.0,0.,24.0,0.,24.0
1979-08-01 12:12:54.790 ,0,1,0.,24.0,0.,24.0,0.,24.0,0.,24.0
1979-08-01 12:13:18.790 ,0,0,0.,24.0,0.,24.0,0.,24.0,0.,24.0
1979-08-01 12:13:42.790 ,1,1,0.,24.0,0.,24.0,0.,24.0,0.,24.0
1979-08-01 12:14:06.790 ,1,0,0.,24.0,0.,24.0,0.,24.0,0.,24.0
1979-08-01 12:14:30.790 ,2,1,0.,24.0,0.,24.0,0.,24.0,0.,24.0
1979-08-01 12:14:54.790 ,2,0,0.,24.0,0.,24.0,0.,24.0,0.,24.0
1979-08-01 12:15:18.790 ,3,1,0.,24.0,0.,24.0,0.,24.0,0.,24.0
1979-08-01 12:15:42.790 ,3,0,0.,24.0,0.,24.0,0.,24.0,0.,24.0
1979-08-01 12:16:06.790 ,4,1,0.,24.0,0.,24.0,0.,24.0,0.,24.0
1979-08-01 12:16:30.790 ,4,0,0.,24.0,0.,24.0,0.,24.0,0.,24.0
1979-08-01 12:16:54.790 ,5,1,0.,24.0,0.,24.0,0.,24.0,0.,24.0
1979-08-01 12:17:18.790 ,5,0,0.,24.0,0.,24.0,0.,24.0,0.,24.0
1979-08-01 12:17:42.790 ,6,1,0.,24.0,0.,24.0,0.,24.0,0.,24.0
1979-08-01 12:18:06.790 ,6,0,0.,24.0,0.,24.0,0.,24.0,0.,24.0
1979-08-01 12:18:30.790 ,0,0,0.,24.0,0.,24.0,0.,24.0,1.,24.0
1979-08-01 12:18:54.790 ,0,0,1.,24.0,0.,24.0,1.,24.0,0.,24.0
1979-08-01 12:19:18.790 ,0,0,0.,24.0,0.,24.0,0.,24.0,0.,24.0
1979-08-01 12:19:42.790 ,1,1,0.,24.0,0.,24.0,0.,24.0,0.,24.0
1979-08-01 12:20:06.790 ,2,1,0.,24.0,0.,24.0,0.,24.0,0.,24.0
1979-08-01 12:20:30.790 ,6,1,0.,24.0,0.,24.0,0.,24.0,0.,24.0
1979-08-01 12:20:54.790 ,5,1,0.,24.0,0.,24.0,0.,24.0,0.,24.0
1979-08-01 12:21:18.790 ,1,1,0.,24.0,0.,24.0,0.,24.0,0.,24.0
1979-08-01 12:21:42.790 ,2,1,0.,24.0,0.,24.0,0.,24.0,0.,24.0
1979-08-01 12:22:06.790 ,0,0,0.,24.0,0.,24.0,0.,24.0,0.,24.0
1979-08-01 12:22:30.790 ,5,1,0.,24.0,0.,24.0,0.,24.0,0.,24.0
1979-08-01 12:22:54.790 ,1,1,1.,24.0,0.,24.0,0.,24.0,0.,24.0
1979-08-01 12:23:18.790 ,2,1,0.,24.0,0.,24.0,0.,24.0,0.,24.0
1979-08-01 12:23:42.790 ,6,1,0.,24.0,0.,24.0,0.,24.0,0.,24.0
1979-08-01 12:24:06.790 ,5,1,0.,24.0,0.,24.0,0.,24.0,0.,24.0
1979-08-01 12:24:30.790 ,1,1,0.,24.0,0.,24.0,0.,24.0,0.,24.0
1979-08-01 12:24:54.790 ,2,1,0.,24.0,0.,24.0,0.,24.0,0.,24.0
1979-08-01 12:25:18.790 ,6,1,0.,24.0,0.,24.0,0.,24.0,0.,24.0
1979-08-01 12:25:42.790 ,5,1,0.,24.0,0.,24.0,0.,24.0,0.,24.0
1979-08-01 12:26:06.790 ,1,1,0.,24.0,0.,24.0,0.,24.0,0.,24.0
1979-08-01 12:27:18.790 ,0,0,0.,24.0,0.,24.0,0.,24.0,0.,24.0
1979-08-01 12:27:42.790 ,1,1,0.,24.0,0.,24.0,0.,24.0,0.,24.0
1979-08-01 12:28:06.790 ,2,1,0.,24.0,0.,24.0,0.,24.0,0.,24.0
1979-08-01 12:28:30.790 ,7,1,,0,,0,,0,,0
1979-08-01 12:28:54.790 ,5,1,0.,24.0,0.,24.0,0.,24.0,0.,24.0
1979-08-01 12:29:18.790 ,1,1,0.,24.0,0.,24.0,0.,24.0,0.,24.0
1979-08-01 12:29:42.790 ,0,0,0.,24.0,0.,24.0,0.,24.0,0.,24.0
1979-08-01 12:30:06.790 ,0,0,0.,24.0,0.,24.0,0.,24.0,0.,24.0
1979-08-01 12:30:30.790 ,5,1,0.,24.0,0.,24.0,0.,24.0,0.,24.0
1979-08-01 12:30:54.790 ,5,0,0.,24.0,0.,24.0,0.,24.0,0.,24.0
1979-08-01 12:31:18.790 ,4,1,0.,24.0,0.,24.0,0.,24.0,0.,24.0
1979-08-01 12:31:42.790 ,4,0,0.,24.0,0.,24.0,0.,24.0,0.,24.0
1979-08-01 12:32:06.790 ,3,1,0.,24.0,0.,24.0,0.,24.0,0.,24.0
1979-08-01 12:32:30.790 ,3,0,0.,24.0,0.,24.0,0.,24.0,0.,24.0
1979-08-01 12:32:54.790 ,2,1,0.,24.0,0.,24.0,0.,24.0,0.,24.0
1979-08-01 12:33:18.790 ,0,0,0.,24.0,0.,24.0,0.,24.0,0.,24.0
1979-08-01 12:33:48.790 ,0,0,0.,24.0,0.,24.0,0.,24.0,0.,24.0
1979-08-01 12:34:06.790 ,0,0,0.,24.0,0.,24.0,0.,24.0,0.,24.0
1979-08-01 12:34:30.790 ,0,1,0.,24.0,0.,24.0,0.,24.0,0.,24.0
1979-08-01 12:34:54.790 ,0,0,0.,24.0,0.,24.0,0.,24.0,0.,24.0
1979-08-01 12:35:18.790 ,0,1,0.,24.0,0.,24.0,0.,24.0,0.,24.0
1979-08-01 12:35:42.790 ,0,0,0.,24.0,0.,24.0,0.,24.0,0.,24.0
1979-08-01 12:36:06.790 ,1,1,0.,24.0,0.,24.0,0.,24.0,0.,24.0
1979-08-01 12:36:30.790 ,1,0,0.,24.0,0.,24.0,0.,24.0,0.,24.0
1979-08-01 12:36:54.790 ,2,1,0.,24.0,0.,24.0,0.,24.0,0.,24.0
1979-08-01 12:37:18.790 ,2,0,1.,24.0,0.,24.0,0.,24.0,0.,24.0
1979-08-01 12:37:42.790 ,3,1,0.,24.0,0.,24.0,0.,24.0,0.,24.0
1979-08-01 12:38:06.790 ,3,0,0.,24.0,0.,24.0,0.,24.0,0.,24.0
1979-08-01 12:38:30.790 ,4,1,0.,24.0,0.,24.0,0.,24.0,0.,24.0
1979-08-01 12:38:54.790 ,4,0,0.,24.0,2.,24.0,1.,24.0,1.,24.0
1979-08-01 12:39:18.790 ,5,1,0.,24.0,0.,24.0,0.,24.0,0.,24.0
1979-08-01 12:39:42.790 ,5,0,0.,24.0,0.,24.0,0.,24.0,0.,24.0
1979-08-01 12:40:06.790 ,6,1,0.,24.0,0.,24.0,0.,24.0,0.,24.0
1979-08-01 12:40:30.790 ,6,0,0.,24.0,0.,24.0,0.,24.0,0.,24.0
1979-08-01 12:40:54.790 ,7,1,0.,24.0,0.,24.0,0.,24.0,0.,24.0
1979-08-01 12:41:18.790 ,7,0,0.,24.0,0.,24.0,0.,24.0,0.,24.0
1979-08-01 12:41:42.790 ,7,1,0.,24.0,0.,24.0,0.,24.0,0.,24.0
1979-08-01 12:42:06.790 ,7,0,,0,,0,,0,,0
1979-08-01 12:42:30.790 ,6,1,0.,24.0,0.,24.0,0.,24.0,0.,24.0
1979-08-01 12:42:54.790 ,6,0,0.,24.0,0.,24.0,0.,24.0,0.,24.0
1979-08-01 12:55:18.790 ,0,0,0.,24.0,0.,24.0,0.,24.0,0.,24.0
1979-08-01 12:55:42.790 ,0,0,0.,24.0,0.,24.0,0.,24.0,0.,24.0
1979-08-01 12:56:06.790 ,5,1,0.,24.0,0.,24.0,0.,24.0,0.,24.0
1979-08-01 12:56:30.790 ,5,0,0.,24.0,0.,24.0,0.,24.0,0.,24.0
1979-08-01 12:56:54.790 ,4,1,0.,24.0,0.,24.0,0.,24.0,0.,24.0
1979-08-01 12:57:18.790 ,4,0,0.,24.0,0.,24.0,0.,24.0,0.,24.0
1979-08-01 12:57:42.790 ,3,1,0.,24.0,0.,24.0,0.,24.0,0.,24.0
1979-08-01 12:58:06.790 ,3,0,0.,24.0,0.,24.0,0.,24.0,0.,24.0
1979-08-01 12:59:18.790 ,0,0,0.,24.0,0.,24.0,0.,24.0,0.,24.0
1979-08-01 12:59:42.790 ,0,0,0.,24.0,0.,24.0,0.,24.0,0.,24.0
1979-08-01 13:00:06.790 ,0,1,0.,24.0,0.,24.0,0.,24.0,0.,24.0
1979-08-01 13:00:30.790 ,0,0,0.,24.0,0.,24.0,0.,24.0,0.,24.0
1979-08-01 13:00:54.790 ,0,1,0.,24.0,0.,24.0,0.,24.0,0.,24.0
1979-08-01 13:01:18.790 ,0,0,,0,,0,,0,,0
1979-08-01 13:01:42.790 ,1,1,0.,24.0,0.,24.0,0.,24.0,0.,24.0
1979-08-01 13:02:06.790 ,1,0,0.,24.0,0.,24.0,0.,24.0,0.,24.0
1979-08-01 13:02:30.790 ,2,1,0.,24.0,0.,24.0,0.,24.0,0.,24.0
1979-08-01 13:02:54.790 ,2,0,0.,24.0,0.,24.0,0.,24.0,0.,24.0
1979-08-01 13:03:18.790 ,0,0,0.,24.0,0.,24.0,0.,24.0,0.,24.0
1979-08-01 13:03:42.790 ,0,0,0.,24.0,0.,24.0,0.,24.0,0.,24.0
1979-08-01 13:04:06.790 ,4,1,0.,24.0,0.,24.0,0.,24.0,0.,24.0
1979-08-01 13:04:30.790 ,4,0,0.,24.0,0.,24.0,0.,24.0,0.,24.0
1979-08-01 13:04:54.790 ,5,1,0.,24.0,0.,24.0,0.,24.0,0.,24.0
1979-08-01 13:05:18.790 ,5,0,0.,24.0,0.,24.0,0.,24.0,0.,24.0
1979-08-01 13:05:42.790 ,0,0,0.,24.0,0.,24.0,0.,24.0,0.,24.0
1979-08-01 13:06:06.790 ,0,0,,0,,0,,0,,0
1979-08-01 13:06:30.790 ,7,0,0.,24.0,0.,24.0,0.,24.0,0.,24.0
1979-08-01 13:06:54.790 ,7,0,0.,24.0,0.,24.0,0.,24.0,0.,24.0
1979-08-01 13:07:18.790 ,5,1,0.,24.0,0.,24.0,0.,24.0,0.,24.0
1979-08-01 13:07:42.790 ,1,1,0.,24.0,0.,24.0,0.,24.0,0.,24.0
1979-08-01 13:09:54.790 ,0,0,,0,,0,,0,,0
1979-08-01 13:10:06.790 ,6,1,0.,24.0,0.,24.0,0.,24.0,0.,24.0
1979-08-01 13:10:30.790 ,4,1,,0,,0,,0,,0
1979-08-01 13:10:54.790 ,2,1,,0,,0,,0,,0
1979-08-01 13:11:18.790 ,2,1,0.,24.0,0.,24.0,0.,24.0,0.,24.0
1979-08-01 13:11:42.790 ,0,0,0.,24.0,0.,24.0,0.,24.0,0.,24.0
1979-08-01 13:12:07.990 ,5,1,1.,24.0,0.,24.0,0.,24.0,0.,24.0
1979-08-01 13:12:30.790 ,1,1,0.,24.0,0.,24.0,0.,24.0,0.,24.0
1979-08-01 13:12:54.790 ,2,1,0.,24.0,0.,24.0,0.,24.0,0.,24.0
1979-08-01 13:13:18.790 ,6,1,0.,24.0,0.,24.0,0.,24.0,0.,24.0
1979-08-01 13:13:42.790 ,3,1,,0,,0,,0,,0
1979-08-01 13:14:06.790 ,1,1,0.,24.0,0.,24.0,0.,24.0,0.,24.0
1979-08-01 13:14:30.790 ,2,1,0.,24.0,0.,24.0,0.,24.0,0.,24.0
1979-08-01 13:14:54.790 ,6,1,0.,24.0,0.,24.0,0.,24.0,0.,24.0
1979-08-01 13:15:18.790 ,5,1,0.,24.0,0.,24.0,0.,24.0,0.,24.0
1979-08-01 13:15:42.790 ,1,1,0.,24.0,0.,24.0,0.,24.0,0.,24.0
1979-08-01 13:16:06.790 ,2,1,0.,24.0,0.,24.0,0.,24.0,0.,24.0
1979-08-01 13:16:30.790 ,6,1,0.,24.0,0.,24.0,0.,24.0,0.,24.0
1979-08-01 13:16:54.790 ,5,1,1.,24.0,0.,24.0,0.,24.0,0.,24.0
1979-08-01 13:17:18.790 ,1,1,0.,24.0,0.,24.0,0.,24.0,0.,24.0
1979-08-01 13:17:42.790 ,0,0,0.,24.0,0.,24.0,0.,24.0,0.,24.0
1979-08-01 13:18:06.790 ,0,0,0.,24.0,0.,24.0,0.,24.0,0.,24.0
1979-08-01 13:18:30.790 ,5,1,0.,24.0,0.,24.0,0.,24.0,0.,24.0
1979-08-01 13:18:54.790 ,5,0,0.,24.0,0.,24.0,0.,24.0,0.,24.0
1979-08-01 13:19:18.790 ,4,1,0.,24.0,0.,24.0,0.,24.0,0.,24.0
1979-08-01 13:19:42.790 ,4,0,0.,24.0,0.,24.0,0.,24.0,0.,24.0
1979-08-01 13:20:06.790 ,3,1,0.,24.0,0.,24.0,0.,24.0,0.,24.0
1979-08-01 13:20:30.790 ,3,0,0.,24.0,0.,24.0,0.,24.0,0.,24.0
1979-08-01 13:20:54.790 ,2,1,0.,24.0,0.,24.0,0.,24.0,0.,24.0
1979-08-01 13:21:18.790 ,2,0,0.,24.0,0.,24.0,0.,24.0,0.,24.0
1979-08-01 13:21:42.790 ,1,1,0.,24.0,0.,24.0,0.,24.0,0.,24.0
1979-08-01 13:22:06.790 ,1,0,0.,24.0,0.,24.0,0.,24.0,0.,24.0
1979-08-01 13:22:30.790 ,0,1,0.,24.0,0.,24.0,0.,24.0,0.,24.0
1979-08-01 13:22:54.790 ,0,0,0.,24.0,0.,24.0,0.,24.0,0.,24.0
1979-08-01 13:24:06.790 ,0,0,0.,24.0,0.,24.0,0.,24.0,0.,24.0
1979-08-01 13:24:30.790 ,0,0,0.,24.0,0.,24.0,0.,24.0,0.,24.0
1979-08-01 13:24:54.790 ,2,1,0.,24.0,0.,24.0,0.,24.0,0.,24.0
1979-08-01 13:25:18.790 ,2,0,0.,24.0,0.,24.0,0.,24.0,0.,24.0
1979-08-01 13:25:42.790 ,3,1,0.,24.0,0.,24.0,0.,24.0,0.,24.0
1979-08-01 13:26:06.790 ,3,0,0.,24.0,0.,24.0,0.,24.0,0.,24.0
1979-08-01 13:26:30.790 ,4,1,0.,24.0,0.,24.0,0.,24.0,0.,24.0
1979-08-01 13:26:54.790 ,4,0,0.,24.0,0.,24.0,0.,24.0,0.,24.0
1979-08-01 13:27:18.790 ,5,1,0.,24.0,0.,24.0,0.,24.0,0.,24.0
1979-08-01 13:27:42.790 ,5,0,0.,24.0,0.,24.0,0.,24.0,0.,24.0
1979-08-01 13:28:06.790 ,6,1,0.,24.0,0.,24.0,0.,24.0,0.,24.0
1979-08-01 13:28:30.790 ,6,0,0.,24.0,0.,24.0,0.,24.0,0.,24.0
1979-08-01 13:28:54.790 ,7,1,0.,24.0,0.,24.0,0.,24.0,0.,24.0
1979-08-01 13:29:18.790 ,7,0,0.,24.0,0.,24.0,0.,24.0,0.,24.0
1979-08-01 13:29:42.790 ,7,1,0.,24.0,0.,24.0,0.,24.0,0.,24.0
1979-08-01 13:30:06.790 ,7,0,0.,24.0,0.,24.0,0.,24.0,0.,24.0
1979-08-01 13:30:30.790 ,6,1,0.,24.0,0.,24.0,0.,24.0,0.,24.0
1979-08-01 13:30:54.790 ,6,0,0.,24.0,0.,24.0,0.,24.0,0.,24.0
1979-08-01 13:31:18.790 ,5,1,0.,24.0,0.,24.0,0.,24.0,0.,24.0
1979-08-01 13:31:42.790 ,5,0,0.,24.0,0.,24.0,0.,24.0,0.,24.0
1979-08-01 13:32:06.790 ,4,1,0.,24.0,0.,24.0,0.,24.0,0.,24.0
1979-08-01 13:32:30.790 ,4,0,0.,24.0,0.,24.0,0.,24.0,0.,24.0
1979-08-01 13:32:54.790 ,3,1,0.,24.0,0.,24.0,0.,24.0,0.,24.0
1979-08-01 13:33:18.790 ,3,0,0.,24.0,0.,24.0,0.,24.0,0.,24.0
1979-08-01 13:33:42.790 ,2,1,0.,24.0,0.,24.0,0.,24.0,0.,24.0
1979-08-01 13:34:06.790 ,2,0,0.,24.0,0.,24.0,0.,24.0,0.,24.0
1979-08-01 13:34:30.780 ,1,1,0.,24.0,0.,24.0,0.,24.0,0.,24.0
1979-08-01 13:34:54.780 ,1,0,0.,24.0,0.,24.0,0.,24.0,0.,24.0
1979-08-01 13:35:18.780 ,0,1,0.,24.0,0.,24.0,0.,24.0,0.,24.0
1979-08-01 13:35:42.780 ,0,0,0.,24.0,0.,24.0,0.,24.0,0.,24.0
1979-08-01 13:36:54.780 ,0,0,0.,24.0,0.,24.0,0.,24.0,0.,24.0
1979-08-01 13:37:18.780 ,0,0,0.,24.0,0.,24.0,0.,24.0,0.,24.0
1979-08-01 13:37:42.780 ,2,1,0.,24.0,0.,24.0,0.,24.0,0.,24.0
1979-08-01 13:38:06.780 ,2,0,0.,24.0,0.,24.0,0.,24.0,0.,24.0
1979-08-01 13:38:30.780 ,3,1,0.,24.0,0.,24.0,0.,24.0,0.,24.0
1979-08-01 13:38:54.780 ,3,0,0.,24.0,0.,24.0,0.,24.0,0.,24.0
1979-08-01 13:40:06.780 ,0,0,0.,24.0,0.,24.0,0.,24.0,0.,24.0
1979-08-01 13:40:30.780 ,0,0,0.,24.0,0.,24.0,0.,24.0,0.,24.0
1979-08-01 13:40:54.780 ,6,1,0.,24.0,0.,24.0,0.,24.0,0.,24.0
1979-08-01 13:41:18.780 ,6,0,0.,24.0,0.,24.0,0.,24.0,0.,24.0
1979-08-01 13:41:42.780 ,7,1,1.,24.0,0.,24.0,0.,24.0,0.,24.0
1979-08-01 13:42:06.780 ,7,0,0.,24.0,0.,24.0,0.,24.0,0.,24.0
1979-08-01 13:42:30.780 ,7,1,0.,24.0,0.,24.0,0.,24.0,0.,24.0
1979-08-01 13:42:54.780 ,7,0,0.,24.0,0.,24.0,0.,24.0,0.,24.0
1979-08-01 13:43:18.780 ,6,1,0.,24.0,0.,24.0,0.,24.0,0.,24.0
1979-08-01 13:43:42.780 ,6,0,0.,24.0,0.,24.0,0.,24.0,0.,24.0
1979-08-01 13:44:06.780 ,5,1,0.,24.0,0.,24.0,0.,24.0,0.,24.0
1979-08-01 13:44:30.780 ,5,0,0.,24.0,0.,24.0,0.,24.0,0.,24.0
1979-08-01 13:44:54.780 ,4,1,0.,24.0,0.,24.0,0.,24.0,0.,24.0
1979-08-01 13:45:18.780 ,4,0,0.,24.0,0.,24.0,0.,24.0,0.,24.0
1979-08-01 13:45:42.780 ,3,1,0.,24.0,0.,24.0,0.,24.0,0.,24.0
1979-08-01 13:46:06.780 ,3,0,0.,24.0,0.,24.0,0.,24.0,0.,24.0
1979-08-01 13:46:30.780 ,2,1,1.,24.0,0.,24.0,0.,24.0,0.,24.0
1979-08-01 13:46:54.780 ,2,0,0.,24.0,0.,24.0,0.,24.0,0.,24.0
1979-08-01 13:47:18.780 ,1,1,0.,24.0,0.,24.0,0.,24.0,0.,24.0
1979-08-01 13:47:42.780 ,1,0,2.,24.0,0.,24.0,0.,24.0,1.,24.0
1979-08-01 13:48:06.780 ,0,1,0.,24.0,0.,24.0,0.,24.0,0.,24.0
1979-08-01 13:48:30.780 ,0,0,0.,24.0,0.,24.0,0.,24.0,0.,24.0
1979-08-01 13:48:54.780 ,0,1,0.,24.0,0.,24.0,0.,24.0,0.,24.0
1979-08-01 13:49:18.780 ,0,0,0.,24.0,0.,24.0,0.,24.0,0.,24.0
1979-08-01 13:49:42.780 ,1,1,0.,24.0,0.,24.0,0.,24.0,0.,24.0
1979-08-01 13:50:06.780 ,1,0,0.,24.0,0.,24.0,0.,24.0,0.,24.0
1979-08-01 13:50:30.780 ,2,1,0.,24.0,0.,24.0,0.,24.0,0.,24.0
1979-08-01 13:50:54.780 ,2,0,0.,24.0,0.,24.0,0.,24.0,0.,24.0
1979-08-01 13:51:18.780 ,3,1,1.,24.0,0.,24.0,0.,24.0,0.,24.0
1979-08-01 13:51:42.780 ,3,0,0.,24.0,0.,24.0,0.,24.0,0.,24.0
1979-08-01 13:52:06.780 ,4,1,0.,24.0,0.,24.0,0.,24.0,0.,24.0
1979-08-01 13:52:30.780 ,4,0,0.,24.0,0.,24.0,0.,24.0,0.,24.0
1979-08-01 13:52:54.780 ,5,1,0.,24.0,0.,24.0,0.,24.0,0.,24.0
1979-08-01 13:53:18.780 ,5,0,0.,24.0,0.,24.0,0.,24.0,0.,24.0
1979-08-01 13:53:42.780 ,6,1,0.,24.0,0.,24.0,0.,24.0,0.,24.0
1979-08-01 13:54:06.780 ,6,0,0.,24.0,0.,24.0,0.,24.0,0.,24.0
1979-08-01 13:54:30.780 ,7,0,0.,24.0,0.,24.0,0.,24.0,0.,24.0
1979-08-01 13:54:54.780 ,7,0,0.,24.0,0.,24.0,0.,24.0,0.,24.0
1979-08-01 13:55:18.780 ,5,1,0.,24.0,0.,24.0,0.,24.0,0.,24.0
1979-08-01 13:55:42.780 ,1,1,0.,24.0,0.,24.0,0.,24.0,0.,24.0
1979-08-01 13:56:06.780 ,2,1,0.,24.0,0.,24.0,0.,24.0,0.,24.0
1979-08-01 13:56:30.780 ,6,1,0.,24.0,0.,24.0,0.,24.0,0.,24.0
1979-08-01 13:56:54.780 ,5,1,0.,24.0,0.,24.0,0.,24.0,0.,24.0
1979-08-01 13:57:18.780 ,1,1,0.,24.0,0.,24.0,0.,24.0,0.,24.0
1979-08-01 13:57:42.780 ,2,1,0.,24.0,0.,24.0,0.,24.0,0.,24.0
1979-08-01 13:58:06.780 ,6,1,0.,24.0,0.,24.0,0.,24.0,0.,24.0
1979-08-01 13:58:30.780 ,5,1,0.,24.0,0.,24.0,0.,24.0,0.,24.0
1979-08-01 13:58:54.780 ,1,1,0.,24.0,0.,24.0,0.,24.0,0.,24.0
1979-08-01 13:59:18.780 ,2,1,0.,24.0,0.,24.0,0.,24.0,0.,24.0
1979-08-01 13:59:42.780 ,6,1,0.,24.0,0.,24.0,0.,24.0,0.,24.0
1979-08-01 14:00:54.780 ,0,0,0.,24.0,0.,24.0,0.,24.0,0.,24.0
1979-08-01 14:01:18.780 ,6,1,0.,24.0,0.,24.0,0.,24.0,0.,24.0
1979-08-01 14:01:42.780 ,0,0,,0,,0,,0,,0
1979-08-01 14:02:06.780 ,0,0,,0,,0,,0,,0
1979-08-01 14:02:06.780 ,1,1,0.,24.0,0.,24.0,0.,24.0,0.,24.0
1979-08-01 14:02:30.780 ,2,1,0.,24.0,0.,24.0,0.,24.0,0.,24.0
1979-08-01 14:02:54.780 ,6,1,0.,24.0,0.,24.0,0.,24.0,0.,24.0
1979-08-01 14:04:06.780 ,0,0,0.,24.0,0.,24.0,0.,24.0,0.,24.0
1979-08-01 14:04:30.780 ,6,1,0.,24.0,0.,24.0,0.,24.0,0.,24.0
1979-08-01 14:04:54.780 ,5,1,0.,24.0,0.,24.0,0.,24.0,0.,24.0
1979-08-01 14:05:18.780 ,1,1,0.,24.0,0.,24.0,0.,24.0,0.,24.0
1979-08-01 14:05:42.780 ,0,0,0.,24.0,0.,24.0,0.,24.0,0.,24.0
1979-08-01 14:06:06.780 ,0,0,0.,24.0,0.,24.0,0.,24.0,0.,24.0
1979-08-01 14:06:30.780 ,5,1,0.,24.0,0.,24.0,0.,24.0,0.,24.0
1979-08-01 14:06:54.780 ,5,0,0.,24.0,0.,24.0,0.,24.0,0.,24.0
1979-08-01 14:07:18.780 ,4,1,0.,24.0,0.,24.0,0.,24.0,0.,24.0
1979-08-01 14:07:42.780 ,4,0,0.,24.0,0.,24.0,0.,24.0,0.,24.0
1979-08-01 14:08:06.780 ,3,1,0.,24.0,0.,24.0,0.,24.0,0.,24.0
1979-08-01 14:08:30.780 ,3,0,0.,24.0,0.,24.0,0.,24.0,0.,24.0
1979-08-01 14:08:54.780 ,2,1,0.,24.0,0.,24.0,0.,24.0,0.,24.0
1979-08-01 14:09:18.780 ,2,0,0.,24.0,0.,24.0,0.,24.0,0.,24.0
1979-08-01 14:09:42.780 ,1,1,0.,24.0,0.,24.0,0.,24.0,0.,24.0
1979-08-01 14:10:06.780 ,1,0,0.,24.0,0.,24.0,0.,24.0,0.,24.0
1979-08-01 14:11:18.780 ,0,0,0.,24.0,0.,24.0,0.,24.0,0.,24.0
1979-08-01 14:11:42.780 ,0,0,0.,24.0,0.,24.0,0.,24.0,0.,24.0
1979-08-01 14:12:06.780 ,1,1,0.,24.0,0.,24.0,0.,24.0,0.,24.0
1979-08-01 14:12:30.780 ,1,0,0.,24.0,0.,24.0,0.,24.0,0.,24.0
1979-08-01 14:12:54.780 ,2,1,0.,24.0,0.,24.0,0.,24.0,0.,24.0
1979-08-01 14:13:18.780 ,2,0,0.,24.0,0.,24.0,0.,24.0,0.,24.0
1979-08-01 14:13:42.780 ,3,1,0.,24.0,0.,24.0,0.,24.0,0.,24.0
1979-08-01 14:14:06.780 ,3,0,0.,24.0,0.,24.0,0.,24.0,0.,24.0
1979-08-01 14:14:30.780 ,4,1,0.,24.0,0.,24.0,0.,24.0,0.,24.0
1979-08-01 14:14:54.780 ,4,0,0.,24.0,0.,24.0,0.,24.0,0.,24.0
1979-08-01 14:15:18.780 ,5,1,0.,24.0,0.,24.0,0.,24.0,0.,24.0
1979-08-01 14:15:42.780 ,5,0,0.,24.0,0.,24.0,0.,24.0,0.,24.0
1979-08-01 14:16:06.780 ,6,1,0.,24.0,0.,24.0,0.,24.0,0.,24.0
1979-08-01 14:16:30.780 ,6,0,1.,24.0,0.,24.0,0.,24.0,0.,24.0
1979-08-01 14:16:54.780 ,7,1,0.,24.0,0.,24.0,0.,24.0,0.,24.0
1979-08-01 14:17:18.780 ,7,0,0.,24.0,0.,24.0,0.,24.0,0.,24.0
1979-08-01 14:17:42.780 ,0,0,0.,24.0,0.,24.0,0.,24.0,0.,24.0
1979-08-01 14:18:06.780 ,0,0,1.,24.0,0.,24.0,2.,24.0,0.,24.0
1979-08-01 14:18:30.780 ,0,0,0.,24.0,0.,24.0,0.,24.0,0.,24.0
1979-08-01 14:18:54.780 ,0,0,0.,24.0,0.,24.0,0.,24.0,0.,24.0
1979-08-01 14:19:18.780 ,5,1,0.,24.0,0.,24.0,0.,24.0,0.,24.0
1979-08-01 14:19:42.780 ,5,0,0.,24.0,0.,24.0,0.,24.0,0.,24.0
1979-08-01 14:20:06.780 ,4,1,0.,24.0,0.,24.0,0.,24.0,0.,24.0
1979-08-01 14:20:30.780 ,4,0,0.,24.0,0.,24.0,0.,24.0,0.,24.0
1979-08-01 14:20:54.780 ,3,1,0.,24.0,0.,24.0,0.,24.0,0.,24.0
1979-08-01 14:21:18.780 ,3,0,1.,24.0,0.,24.0,0.,24.0,0.,24.0
1979-08-01 14:21:42.780 ,2,1,0.,24.0,0.,24.0,0.,24.0,0.,24.0
1979-08-01 14:22:06.780 ,2,0,0.,24.0,0.,24.0,0.,24.0,0.,24.0
1979-08-01 14:22:30.780 ,1,1,0.,24.0,0.,24.0,0.,24.0,0.,24.0
1979-08-01 14:22:54.780 ,1,0,0.,24.0,0.,24.0,0.,24.0,0.,24.0
1979-08-01 14:23:18.780 ,0,1,0.,24.0,0.,24.0,0.,24.0,0.,24.0
1979-08-01 14:23:42.780 ,0,0,0.,24.0,0.,24.0,0.,24.0,0.,24.0
1979-08-01 14:24:06.780 ,0,1,0.,24.0,0.,24.0,0.,24.0,0.,24.0
1979-08-01 14:24:30.780 ,0,0,0.,24.0,0.,24.0,0.,24.0,0.,24.0
1979-08-01 14:24:54.780 ,1,1,0.,24.0,0.,24.0,0.,24.0,0.,24.0
1979-08-01 14:25:18.780 ,1,0,0.,24.0,0.,24.0,0.,24.0,0.,24.0
1979-08-01 14:25:42.780 ,2,1,0.,24.0,0.,24.0,0.,24.0,0.,24.0
1979-08-01 14:26:06.780 ,2,0,0.,24.0,0.,24.0,0.,24.0,0.,24.0
1979-08-01 14:26:30.780 ,3,1,1.,24.0,0.,24.0,0.,24.0,0.,24.0
1979-08-01 14:26:54.780 ,3,0,0.,24.0,0.,24.0,0.,24.0,0.,24.0
1979-08-01 14:27:18.780 ,4,1,0.,24.0,0.,24.0,0.,24.0,0.,24.0
1979-08-01 14:27:42.780 ,4,0,0.,24.0,0.,24.0,0.,24.0,0.,24.0
1979-08-01 14:28:06.780 ,5,1,0.,24.0,0.,24.0,0.,24.0,0.,24.0
1979-08-01 14:28:30.780 ,5,0,0.,24.0,0.,24.0,0.,24.0,0.,24.0
1979-08-01 14:28:54.780 ,6,1,0.,24.0,0.,24.0,0.,24.0,0.,24.0
1979-08-01 14:29:18.780 ,6,0,0.,24.0,0.,24.0,0.,24.0,0.,24.0
1979-08-01 14:30:30.780 ,0,0,0.,24.0,0.,24.0,0.,24.0,0.,24.0
1979-08-01 14:30:54.780 ,0,0,0.,24.0,0.,24.0,0.,24.0,0.,24.0
1979-08-01 14:31:18.780 ,6,1,0.,24.0,0.,24.0,0.,24.0,0.,24.0
1979-08-01 14:31:42.780 ,6,0,0.,24.0,0.,24.0,0.,24.0,0.,24.0
1979-08-01 14:32:06.780 ,5,1,0.,24.0,0.,24.0,0.,24.0,0.,24.0
1979-08-01 14:32:30.780 ,5,0,0.,24.0,0.,24.0,0.,24.0,0.,24.0
1979-08-01 14:32:54.780 ,4,1,0.,24.0,0.,24.0,0.,24.0,0.,24.0
1979-08-01 14:33:18.780 ,4,0,0.,24.0,0.,24.0,0.,24.0,0.,24.0
1979-08-01 14:33:42.780 ,3,1,0.,24.0,0.,24.0,0.,24.0,0.,24.0
1979-08-01 14:34:06.780 ,3,0,0.,24.0,0.,24.0,0.,24.0,0.,24.0
1979-08-01 14:34:30.780 ,2,1,1.,24.0,0.,24.0,0.,24.0,0.,24.0
1979-08-01 14:34:54.780 ,2,0,0.,24.0,0.,24.0,0.,24.0,0.,24.0
1979-08-01 14:35:18.780 ,1,1,0.,24.0,0.,24.0,0.,24.0,0.,24.0
1979-08-01 14:35:42.780 ,1,0,0.,24.0,0.,24.0,0.,24.0,1.,24.0
1979-08-01 14:36:06.780 ,0,1,0.,24.0,0.,24.0,0.,24.0,0.,24.0
1979-08-01 14:36:30.780 ,0,0,0.,24.0,0.,24.0,0.,24.0,0.,24.0
1979-08-01 14:36:54.780 ,0,1,0.,24.0,0.,24.0,0.,24.0,0.,24.0
1979-08-01 14:37:18.780 ,0,0,0.,24.0,0.,24.0,0.,24.0,0.,24.0
1979-08-01 14:37:42.780 ,1,1,0.,24.0,0.,24.0,0.,24.0,0.,24.0
1979-08-01 14:38:06.780 ,1,0,0.,24.0,0.,24.0,0.,24.0,0.,24.0
1979-08-01 14:38:30.780 ,2,1,0.,24.0,0.,24.0,0.,24.0,0.,24.0
1979-08-01 14:38:54.780 ,2,0,0.,24.0,0.,24.0,0.,24.0,0.,24.0
1979-08-01 14:39:18.780 ,3,1,0.,24.0,0.,24.0,0.,24.0,0.,24.0
1979-08-01 14:39:42.780 ,3,0,0.,24.0,0.,24.0,0.,24.0,0.,24.0
1979-08-01 14:40:06.780 ,4,1,0.,24.0,0.,24.0,0.,24.0,0.,24.0
1979-08-01 14:40:30.780 ,4,0,0.,24.0,0.,24.0,0.,24.0,0.,24.0
1979-08-01 14:40:54.780 ,5,1,0.,24.0,0.,24.0,0.,24.0,0.,24.0
1979-08-01 14:41:18.780 ,5,0,0.,24.0,0.,24.0,0.,24.0,0.,24.0
1979-08-01 14:41:42.780 ,6,1,0.,24.0,0.,24.0,0.,24.0,0.,24.0
1979-08-01 14:42:06.780 ,6,0,0.,24.0,0.,24.0,0.,24.0,0.,24.0
1979-08-01 14:42:30.780 ,7,0,0.,24.0,0.,24.0,0.,24.0,0.,24.0
1979-08-01 14:42:54.780 ,7,0,0.,24.0,0.,24.0,0.,24.0,0.,24.0
1979-08-01 14:43:18.780 ,5,1,0.,24.0,0.,24.0,0.,24.0,0.,24.0
1979-08-01 14:43:42.780 ,1,1,0.,24.0,0.,24.0,0.,24.0,0.,24.0
1979-08-01 14:44:06.780 ,2,1,0.,24.0,0.,24.0,0.,24.0,0.,24.0
1979-08-01 14:44:30.780 ,6,1,0.,24.0,0.,24.0,0.,24.0,0.,24.0
1979-08-01 14:44:54.780 ,5,1,0.,24.0,0.,24.0,0.,24.0,0.,24.0
1979-08-01 14:45:18.780 ,1,1,0.,24.0,0.,24.0,0.,24.0,0.,24.0
1979-08-01 14:45:42.780 ,2,1,0.,24.0,0.,24.0,0.,24.0,0.,24.0
1979-08-01 14:46:06.780 ,6,1,0.,24.0,0.,24.0,0.,24.0,0.,24.0
1979-08-01 14:46:30.780 ,5,1,0.,24.0,0.,24.0,0.,24.0,0.,24.0
1979-08-01 14:46:54.780 ,1,1,0.,24.0,0.,24.0,0.,24.0,0.,24.0
1979-08-01 14:48:06.780 ,0,0,0.,24.0,0.,24.0,0.,24.0,0.,24.0
1979-08-01 14:48:30.780 ,1,1,0.,24.0,0.,24.0,0.,24.0,0.,24.0
1979-08-01 14:48:54.780 ,2,1,0.,24.0,0.,24.0,0.,24.0,0.,24.0
1979-08-01 14:49:18.780 ,6,1,0.,24.0,0.,24.0,0.,24.0,0.,24.0
1979-08-01 14:49:42.780 ,5,1,0.,24.0,0.,24.0,0.,24.0,0.,24.0
1979-08-01 14:50:06.780 ,1,1,0.,24.0,0.,24.0,0.,24.0,0.,24.0
1979-08-01 14:50:30.780 ,0,0,0.,24.0,0.,24.0,0.,24.0,0.,24.0
1979-08-01 14:50:54.780 ,0,0,3.,24.0,0.,24.0,0.,24.0,0.,24.0
1979-08-01 14:51:18.780 ,0,0,0.,24.0,0.,24.0,0.,24.0,0.,24.0
1979-08-01 14:51:42.780 ,1,1,0.,24.0,0.,24.0,0.,24.0,0.,24.0
1979-08-01 14:52:06.780 ,2,1,0.,24.0,0.,24.0,0.,24.0,0.,24.0
1979-08-01 14:52:30.780 ,6,1,0.,24.0,0.,24.0,0.,24.0,0.,24.0
1979-08-01 14:52:54.780 ,5,1,0.,24.0,0.,24.0,0.,24.0,0.,24.0
1979-08-01 14:53:18.780 ,1,1,0.,24.0,0.,24.0,0.,24.0,0.,24.0
1979-08-01 14:54:30.780 ,0,0,0.,24.0,0.,24.0,0.,24.0,0.,24.0
1979-08-01 14:54:54.780 ,0,0,0.,24.0,0.,24.0,0.,24.0,0.,24.0
1979-08-01 14:55:18.780 ,4,1,0.,24.0,0.,24.0,0.,24.0,0.,24.0
1979-08-01 14:55:42.780 ,4,0,0.,24.0,0.,24.0,0.,24.0,0.,24.0
1979-08-01 14:56:06.780 ,3,1,0.,24.0,0.,24.0,0.,24.0,0.,24.0
1979-08-01 14:56:30.780 ,3,0,0.,24.0,0.,24.0,0.,24.0,0.,24.0
1979-08-01 14:56:54.780 ,2,1,0.,24.0,0.,24.0,0.,24.0,0.,24.0
1979-08-01 14:57:18.780 ,2,0,1.,24.0,0.,24.0,0.,24.0,0.,24.0
1979-08-01 14:57:42.780 ,1,1,0.,24.0,0.,24.0,0.,24.0,0.,24.0
1979-08-01 14:58:06.780 ,1,0,0.,24.0,0.,24.0,0.,24.0,0.,24.0
1979-08-01 14:58:30.780 ,0,1,0.,24.0,0.,24.0,0.,24.0,0.,24.0
1979-08-01 14:58:54.780 ,0,0,0.,24.0,0.,24.0,0.,24.0,0.,24.0
1979-08-01 14:59:18.780 ,0,1,0.,24.0,0.,24.0,0.,24.0,0.,24.0